Location: Bougoudala
(13.2282°N, 4.9477°W)
Time: 23:46:31
(UTC+00:00)

Cosmos 1844 Rocket - Pass Details

Date: 29 January 2020
Orbit: 823 x 845 km, 71.0° (Epoch: 25 February)

Event Time Altitude Azimuth Distance (km) Brightness Sun altitude
Rises 19:52:23 0° 205° (SSW) 3,347 6.4 -22.7°
Reaches altitude 10° 19:54:51 10° 209° (SSW) 2,414 5.6 -23.2°
Maximum altitude 20:00:16 55° 287° (WNW) 977 3.2 -24.5°
Enters shadow 20:04:03 20° 359° (N) 1,833 4.3 -25.4°
